User: anonymous   Login
Location: Newark
(35.6799°N, 139.7636°E)
Time: 02:50:26
(UTC+00:00)
Language:

Explorer 7 - Orbit

View from above orbital plane
View from above orbital plane
View from above satellite
View from above satellite

Ground track
Ground track

The orbit data is extracted from the following two-line orbital elements,

1 00022U 59009A   21021.63906533  .00000009  00000-0  23970-4 0  9992
2 00022  50.2833 158.1713 0138855  12.4887 347.9445 14.95386011503016
Epoch (UTC): 21 January 2021 15:20:15
Eccentricity: 0.0138855
inclination: 50.2833°
perigee height: 484 km
apogee height: 678 km
right ascension of ascending node: 158.1713°
argument of perigee: 12.4887°
revolutions per day: 14.95386011
mean anomaly at epoch: 347.9445°
orbit number at epoch: 50301

The dashed part of the orbit path shows where the satellite is in the earth's shadow,  

DLR